Probability
0 0 0 0 0 0 0 0 0 0 0 0 0 0 0 0 0 0 0 0 0 0 0 0 0 0 0 0 0 0 0 0 0 0 0 0 1 1 1 0 0 0 0
0 0 0 0 0 0 0 0 0 0 0 0 0 0 0 0 0 0 0 0 0 0 0 0 0 0 0 0 0 0 0 0 0 0 0 0 0 0 0 0 0 0 0
0 0 0 0 0 0 0 0 0 0 0 0 0 0 0 0 0 0 0 0 0 0 0 0 0 0 0 0 0 0 0 0 0 0 0 0 0 0 0 0 0 0 0
0 0 0 0 0 0 0 0 0 0 0 0 0 0 0 0 0 0 0 0 0 0 0 0 0 0 0 0 0 0 0 0 0 0 0 0 0 0 0 0 0 0 0
0 0 0 0 0 0 0 0 0 0 0 0 0 0 0 0 0 0 0 0 0 0 0 0 0 0 0 0 0 0 0 0 0 0 0 0 0 0 0 0 0 0 0
0 0 0 0 0 0 0 0 0 0 0 0 0 0 0 0 0 0 0 0 0 0 0 0 0 0 0 0 0 0 0 0 0 0 0 0 0 0 0 0 0 0 0
0 0 0 0 0 0 0 0 0 0 0 0 0 0 0 0 0 0 0 0 0 0 0 0 0 0 0 0 0 0 0 0 0 0 0 0 0 0 0 0 0 0 0
0 0 0 0 0 0 0 0 0 0 0 0 0 0 0 0 0 0 0 0 0 0 0 0 0 0 0 0 0 0 0 0 0 0 0 0 0 0 0 0 0 0 0
0 0 0 0 0 0 0 0 0 0 0 0 0 0 0 0 0 0 0 0 0 0 0 0 0 0 0 0 0 0 0 0 0 0 0 0 0 0 0 0 0 0 0
0 0 0 0 0 0 0 0 0 0 0 0 0 0 0 0 0 0 0 0 0 0 0 0 0 0 0 0 0 0 0 0 0 0 0 0 0 0 0 0 0 0 0
0 0 0 0 0 0 0 0 0 0 0 0 0 0 0 0 0 0 0 0 0 0 0 0 0 0 0 0 0 0 0 0 0 0 0 0 0 0 0 0 0 0 0
0 0 0 0 0 0 0 0 0 0 0 0 0 0 0 0 0 0 0 0 0 0 0 0 0 0 0 0 0 0 0 0 0 0 0 0 0 0 0 0 0 0 0
0 0 0 0 0 0 0 0 0 0 0 0 0 0 0 0 0 0 0 0 0 0 0 0 0 0 0 0 0 0 0 0 0 0 0 0 0 0 0 0 0 0 0
0 0 0 0 0 0 0 0 0 0 0 0 0 0 0 0 0 0 0 0 0 0 0 0 0 0 0 0 0 0 0 0 0 0 0 0 0 0 0 0 0 0 0
0 0 0 0 0 0 0 0 0 0 0 0 0 0 0 0 0 0 0 0 0 0 0 0 0 0 0 0 0 0 0 0 0 0 0 0 0 0 0 0 0 0 0
0 0 0 0 0 0 0 0 0 0 0 0 0 0 0 0 0 0 0 0 0 0 0 0 0 0 0 0 0 0 0 0 0 0 0 0 0 0 0 0 0 0 0
0 0 0 0 0 0 0 0 0 0 0 0 0 0 0 0 0 0 0 0 0 0 0 0 0 0 0 0 0 0 0 0 0 0 0 0 0 0 0 0 0 0 0
0 0 0 0 0 0 0 0 0 0 0 0 0 0 0 0 0 0 0 0 0 0 0 0 0 0 0 0 0 0 0 0 0 0 0 0 0 0 0 0 0 0 0
0 0 0 0 0 0 0 0 0 0 0 0 0 0 0 0 0 0 0 0 0 0 0 0 0 0 0 0 0 0 0 0 0 0 0 0 0 0 0 0 0 0 0
0 0 0 0 0 0 0 0 0 0 0 0 0 0 0 0 0 0 0 0 0 0 0 0 0 0 0 0 0 0 0 0 0 0 0 0 0 0 0 0 0 0 0
0 0 0 0 0 0 0 0 0 0 0 0 0 0 0 0 0 0 0 0 0 0 0 0 0 0 0 0 0 0 0 0 0 0 0 0 0 0 0 0 0 0 0
0 0 0 0 0 0 0 0 0 0 0 0 0 0 0 0 0 0 0 0 0 0 0 0 0 0 0 0 0 0 0 0 0 0 0 0 0 0 0 0 0 0 0
0 0 0 0 0 0 0 0 0 0 0 0 0 0 0 0 0 0 0 0 0 0 0 0 0 0 0 0 0 0 0 0 0 0 0 0 0 0 0 0 0 0 0
0 0 0 0 0 0 0 0 0 0 0 0 0 0 0 0 0 0 0 0 0 0 0 0 0 0 0 0 0 0 0 0 0 0 0 0 0 0 0 0 0 0 0
0 0 0 0 0 0 0 0 0 0 0 0 0 0 0 0 0 0 0 0 0 0 0 0 0 0 0 0 0 0 0 0 0 0 0 0 0 0 0 0 0 0 0
0 0 0 0 0 0 0 0 0 0 0 0 0 0 0 0 0 0 0 0 0 0 0 0 0 0 0 0 0 0 0 0 0 0 0 0 0 0 0 0 0 0 0
Wind_Speed
7 6 5 5 5 5 4 4 4 3 3 3 3 2 2 2 1 1 1 1 1 1 1 1 1 1 1 1 1 1 1 2 2 1 1 1 1 1 1 1 1 1 2
8 7 6 6 5 5 5 5 4 4 3 3 3 2 2 2 2 2 1 1 1 0 0 1 1 1 2 1 1 1 1 1 2 1 1 1 1 1 1 1 1 1 2
7 7 6 6 6 6 6 5 5 4 3 3 3 3 3 3 3 2 2 2 1 1 2 2 2 2 2 1 1 1 1 1 1 1 1 1 1 1 1 1 2 2 2
8 8 7 7 7 7 6 6 5 5 4 4 3 4 4 3 3 3 2 1 1 1 1 2 3 3 3 2 2 1 1 1 1 1 0 1 1 1 1 1 2 2 2
9 9 9 8 7 6 6 6 5 5 5 5 4 3 3 3 4 4 3 2 2 1 1 1 3 4 5 3 2 2 2 1 1 1 0 1 1 1 1 1 1 2 2
10 10 9 7 7 7 7 6 6 5 5 4 5 4 4 4 6 8 5 3 2 2 1 1 2 2 3 3 3 4 4 3 2 1 1 1 1 1 1 0 0 1 2
11 10 9 8 8 8 7 6 7 6 5 5 5 5 5 6 8 9 8 5 3 3 3 2 2 2 3 1 1 1 1 3 4 4 3 2 2 2 1 1 1 1 2
11 11 10 9 9 7 7 7 7 5 5 5 6 6 5 7 10 9 9 5 3 3 3 4 3 2 3 3 2 1 1 1 2 2 3 3 3 3 2 2 2 1 2
12 12 11 11 10 8 8 8 7 5 5 5 5 6 6 7 10 10 8 3 3 3 3 4 4 4 5 6 4 2 1 2 2 2 4 4 4 4 3 1 0 1 2
13 13 12 11 11 11 10 8 6 6 6 6 6 6 7 7 9 11 10 4 3 3 2 3 5 5 6 7 5 4 2 2 1 2 1 2 2 2 1 2 2 1 1
11 10 10 11 12 11 9 7 6 6 6 5 6 5 6 7 8 11 11 5 5 4 3 3 3 5 5 6 6 4 4 3 1 1 1 2 2 2 1 0 2 2 2
6 9 11 12 11 10 9 8 7 7 6 6 5 4 3 4 7 9 12 11 8 5 4 4 4 5 5 5 4 4 4 4 2 2 2 1 1 1 1 1 1 1 2
5 9 10 11 11 9 10 10 7 6 6 6 5 5 4 3 3 8 11 12 11 5 4 6 6 6 4 3 4 5 4 3 3 2 1 0 0 1 1 2 2 2 2
5 7 8 9 9 9 8 8 8 8 7 7 6 6 4 3 3 3 4 5 7 5 3 4 5 5 4 4 3 2 2 3 3 3 2 1 1 1 2 2 2 2 2
6 6 6 8 9 9 8 7 9 9 10 10 8 7 7 7 8 10 7 5 5 5 5 3 2 2 3 2 2 2 2 2 2 2 2 2 1 1 1 1 2 2 2
6 5 4 5 6 6 6 3 1 4 8 12 11 10 7 9 11 12 12 11 11 12 7 4 4 4 4 4 4 3 2 2 2 2 2 2 2 2 1 2 2 2 2
6 6 4 4 5 6 7 8 6 1 1 5 10 13 11 12 13 12 11 11 11 12 5 4 4 5 4 4 4 4 3 3 3 3 3 2 2 2 2 2 2 2 1
8 7 6 5 5 6 8 8 8 8 6 3 4 10 12 13 14 13 12 9 5 5 4 5 5 5 5 5 5 4 4 3 3 3 3 2 2 2 2 2 1 1 1
8 6 5 5 5 5 6 6 7 8 7 6 4 5 9 11 11 12 11 6 6 6 5 5 5 5 5 5 5 4 4 4 4 3 3 3 2 3 2 1 1 1 1
7 12 10 5 4 4 5 6 7 8 8 8 8 8 7 7 5 7 6 5 6 6 6 6 5 5 5 5 5 5 5 4 4 3 3 3 2 2 2 2 1 1 0
7 9 12 7 5 5 6 7 8 8 9 9 9 10 15 10 9 9 8 7 7 7 7 6 6 6 6 5 5 6 6 4 4 4 3 3 3 2 2 1 1 0 0
6 7 7 7 6 6 7 7 7 8 10 10 7 9 18 9 7 8 8 7 6 6 6 7 6 6 6 6 6 6 6 5 5 4 4 3 3 2 2 1 0 0 1
6 8 8 8 7 8 7 7 7 8 9 9 9 10 11 10 9 8 8 7 7 6 6 6 7 5 5 5 5 6 7 6 5 5 5 4 3 2 1 1 1 1 1
7 8 9 9 8 7 7 7 7 8 8 9 10 10 11 10 10 10 9 8 7 7 7 7 7 9 10 6 5 4 5 6 5 5 6 4 3 2 2 1 1 2 2
7 8 9 8 8 7 7 7 7 8 8 9 10 10 10 10 9 9 9 8 9 9 9 8 7 9 11 11 8 7 10 11 8 5 4 4 3 3 2 2 2 2 3
8 9 8 8 8 8 7 7 7 8 8 8 9 10 10 10 10 10 9 9 9 9 9 8 9 10 11 9 10 12 12 11 10 8 5 3 3 2 2 2 2 3 3
Wind_Direction
187 190 188 195 198 193 192 202 201 209 211 210 212 209 208 199 177 139 150 104 88 42 51 103 104 110 94 87 90 97 111 131 151 278 303 326 358 353 349 324 268 241 256
188 188 195 199 195 194 201 208 205 209 215 218 208 194 198 191 176 163 177 157 143 136 146 128 135 119 95 89 92 94 109 145 151 190 313 337 336 307 301 296 302 264 263
184 187 195 199 199 203 206 210 208 209 215 212 195 192 189 181 177 180 178 179 190 197 187 171 174 142 127 121 116 116 106 98 132 151 265 316 324 334 360 341 331 324 299
184 187 195 202 204 206 206 206 206 204 201 203 200 198 191 183 179 181 179 179 204 224 198 181 179 169 169 160 144 145 126 96 100 121 195 318 316 326 29 2 343 337 320
186 193 202 205 203 203 203 206 206 203 205 198 191 196 195 188 191 183 179 172 173 193 204 212 203 189 179 173 164 170 144 126 113 106 65 1 329 341 329 304 311 317 311
191 200 201 197 198 202 204 204 201 203 204 193 193 195 201 208 199 187 175 171 176 183 199 221 212 194 190 185 173 172 168 161 168 163 181 217 264 259 249 246 293 2 315
197 200 197 195 198 203 203 198 201 202 199 199 204 201 210 221 211 196 185 170 179 192 196 195 199 179 179 175 203 185 191 196 185 172 182 214 226 225 201 234 229 225 246
200 201 199 196 199 200 198 202 205 199 199 202 207 207 211 227 221 209 195 179 190 204 202 196 190 203 195 180 177 167 260 280 240 200 196 218 224 225 205 201 211 252 282
203 205 202 196 196 195 199 205 204 198 204 207 206 205 211 230 224 214 192 175 199 219 220 207 194 202 211 183 162 168 211 308 300 243 220 233 243 243 206 141 105 52 320
211 208 202 196 195 197 201 201 197 196 206 208 215 212 213 224 225 214 192 176 193 213 224 228 218 208 208 183 170 170 186 247 314 3 355 331 308 303 233 182 178 172 226
219 207 199 197 198 199 197 194 192 196 201 208 216 221 219 222 224 214 195 181 190 194 201 215 225 211 200 186 175 179 198 183 155 91 21 1 8 13 9 147 178 171 182
226 208 204 201 200 198 193 194 191 189 195 207 212 224 229 228 219 216 205 195 184 179 196 205 210 204 195 184 176 179 166 138 119 99 72 38 19 359 344 352 355 209 204
243 218 212 205 203 194 190 192 189 188 194 201 200 211 221 223 222 211 201 194 187 180 194 199 197 192 180 172 171 161 144 132 127 122 127 145 292 320 358 9 9 13 13
269 240 219 207 204 199 194 192 191 193 197 199 200 204 205 205 208 194 180 180 182 179 174 173 166 157 144 141 135 132 132 144 145 146 152 142 51 43 36 29 27 17 32
294 267 237 217 206 201 198 197 197 201 198 195 200 191 187 203 210 193 177 179 177 174 148 130 129 134 140 136 126 125 125 122 122 122 123 113 89 72 41 26 44 48 56
307 295 258 227 212 198 186 182 206 206 212 207 196 185 195 195 182 187 189 187 180 166 150 158 170 169 171 168 158 145 135 136 135 130 124 126 120 109 78 38 49 61 52
298 294 281 243 217 201 191 187 187 164 119 196 193 186 181 176 178 181 180 177 176 165 162 172 174 175 172 167 162 156 155 152 140 130 126 124 118 105 94 72 58 57 44
304 291 288 253 226 213 205 200 191 183 183 193 197 189 180 176 175 172 164 147 159 171 173 173 174 170 166 163 161 153 145 139 131 127 123 119 115 110 100 86 71 60 29
312 299 289 274 240 220 211 202 196 192 187 175 163 180 181 173 172 174 164 164 171 176 175 170 167 163 160 156 153 147 144 142 137 130 125 122 119 112 107 98 79 31 45
309 307 305 285 255 228 210 203 201 195 189 186 187 182 165 156 171 181 183 176 173 173 170 168 164 159 156 153 148 143 138 136 135 130 130 128 124 120 121 112 100 75 347
306 305 306 294 258 233 219 212 207 201 197 197 197 187 178 180 184 184 183 183 180 176 171 166 162 159 155 150 147 146 144 143 142 138 135 132 128 124 124 123 123 125 283
303 302 296 287 269 246 230 220 212 208 205 198 186 183 186 183 183 183 185 185 181 173 166 161 160 162 161 159 154 150 148 147 146 142 138 135 131 131 131 130 139 257 283
294 299 296 286 271 257 244 228 217 211 206 198 185 179 185 191 188 185 182 177 170 164 159 156 153 152 149 148 150 151 153 158 157 152 146 144 143 147 153 177 229 263 277
288 293 293 288 275 257 242 232 224 217 207 197 190 186 187 188 186 182 175 169 165 162 158 156 156 156 150 142 136 134 138 142 141 145 148 151 157 165 176 199 232 256 270
285 285 286 283 275 262 248 235 226 219 210 199 191 187 183 180 179 175 169 165 161 160 158 153 150 151 151 147 144 144 149 147 145 143 142 147 161 177 195 219 239 258 266
285 283 281 279 272 260 248 237 227 219 212 200 189 182 179 176 173 169 165 162 158 156 153 151 150 149 149 148 150 151 152 151 151 150 146 150 164 190 206 227 249 258 268